Hoonah, AK

5:36 PM AKDT on April 28, 2017 (GMT -0800)
Hoonah

Weather History for PAOH - October, 2012

Change the Weather History Date:

Thursday, October 4, 2012

  Actual Average Record
Temperature  
Mean Temperature 44 °F -  
Max Temperature 46 °F 48 °F 60 °F (2003)
Min Temperature 42 °F 39 °F 30 °F (2000)
Degree Days  
Heating Degree Days 21    
Moisture  
Dew Point 45 °F    
Average Humidity 98    
Maximum Humidity 100    
Minimum Humidity 89    
Precipitation  
Precipitation 0.00 in - - ()
Sea Level Pressure  
Sea Level Pressure 30.50 in    
Wind  
Wind Speed 2 mph (East)    
Max Wind Speed 9 mph    
Max Gust Speed -    
Averages and records for this station are not official NWS values.
T = Trace of Precipitation, MM = Missing Value Source: NWS Daily Summary

Daily Weather History Graph

Daily Weather History Graph

Search for Another Location

Airport or City:

Trip Planner

Search our weather history database for the weather conditions in past years. The results will help you decide how hot, cold, wet, or windy it might be!

Date:

Astronomy

Oct. 04, 2012 Rise Set
Actual Time 7:13 AM AKDT 6:25 PM AKDT
Civil Twilight 6:34 AM AKDT 7:04 PM AKDT
Nautical Twilight 5:48 AM AKDT 7:49 PM AKDT
Astronomical Twilight 5:01 AM AKDT 8:36 PM AKDT
Moon 8:02 PM AKDT (10/4) 12:40 PM AKDT (10/4)
Length of Visible Light 12h 29m
Length of Day
11h 11m
Waning Gibbous, 81% of the Moon is Illuminated
Oct 4
Waning Gibbous
Oct 7
Last Quarter
Oct 15
New
Oct 21
First Quarter
Oct 29
Full

Hourly Weather History & Observations

Time (AKDT) Temp. Windchill Dew Point Humidity Pressure Visibility Wind Dir Wind Speed Gust Speed Precip Events Conditions
12:56 AM 43.9 °F - 43.0 °F 97% 30.52 in - Calm Calm - N/A   Overcast
1:56 AM 43.9 °F - 43.0 °F 97% 30.51 in - Calm Calm - N/A   Overcast
2:56 AM 43.9 °F - 43.0 °F 97% 30.52 in - Calm Calm - N/A   Overcast
3:56 AM 43.9 °F - 43.0 °F 97% 30.50 in - Calm Calm - N/A   Overcast
4:17 AM 42.8 °F - 42.8 °F 100% 30.49 in - Calm Calm - N/A   Overcast
4:56 AM 43.0 °F - 43.0 °F 100% 30.50 in - Calm Calm - N/A   Overcast
5:56 AM 43.9 °F - 43.0 °F 97% 30.49 in - Calm Calm - N/A   Overcast
6:56 AM 43.9 °F - 43.0 °F 97% 30.49 in - Calm Calm - N/A   Overcast
7:56 AM 43.9 °F - 43.0 °F 97% 30.50 in - Calm Calm - N/A   Overcast
8:56 AM 45.9 °F 42.9 °F 43.9 °F 93% 30.49 in - East 5.8 mph - N/A   Overcast
9:56 AM 46.4 °F 43.5 °F 44.6 °F 93% 30.49 in - Variable 5.8 mph - N/A   Overcast
10:56 AM 46.9 °F - 43.9 °F 89% 30.51 in - Calm Calm - N/A   Overcast
11:12 AM 46.4 °F - 44.6 °F 93% 30.51 in - Calm Calm - N/A   Overcast
11:56 AM 45.9 °F 41.7 °F 45.0 °F 97% 30.52 in - East 8.1 mph - 0.00 in   Overcast
12:10 PM 46.4 °F 41.9 °F 44.6 °F 93% 30.51 in - East 9.2 mph - N/A   Overcast
12:56 PM 45.9 °F 42.3 °F 45.0 °F 97% 30.51 in - East 6.9 mph - N/A   Overcast
1:56 PM 45.9 °F 41.7 °F 45.0 °F 97% 30.52 in - East 8.1 mph - 0.00 in Rain Light Rain
2:32 PM 46.4 °F 42.9 °F 46.4 °F 100% 30.50 in - Variable 6.9 mph - 0.00 in   Overcast
2:39 PM 46.4 °F 43.5 °F 46.4 °F 100% 30.50 in - ENE 5.8 mph - 0.00 in   Overcast
2:56 PM 45.9 °F 42.9 °F 45.9 °F 100% 30.50 in - East 5.8 mph - 0.00 in   Overcast
3:13 PM 46.4 °F 43.5 °F 46.4 °F 100% 30.49 in - ESE 5.8 mph - N/A   Overcast
3:56 PM 46.9 °F - 45.9 °F 96% 30.50 in - West 3.5 mph - N/A   Overcast
4:08 PM 46.4 °F - 46.4 °F 100% 30.50 in - Calm Calm - N/A   Overcast
4:26 PM 46.4 °F - 46.4 °F 100% 30.49 in - Calm Calm - N/A   Overcast
4:56 PM 46.9 °F - 45.9 °F 96% 30.51 in - East 4.6 mph - 0.00 in Rain Light Rain
5:20 PM 46.4 °F 44.3 °F 46.4 °F 100% 30.49 in - East 4.6 mph - 0.00 in   Overcast
5:56 PM 46.9 °F - 45.9 °F 96% 30.51 in - NE 4.6 mph - 0.00 in   Overcast
6:33 PM 46.4 °F 45.2 °F 46.4 °F 100% 30.49 in - Variable 3.5 mph - N/A   Overcast
6:56 PM 46.4 °F - 46.4 °F 100% 30.50 in - Calm Calm - N/A Rain Light Rain
7:56 PM 46.9 °F - 45.9 °F 96% 30.50 in - Calm Calm - 0.00 in   Overcast
8:56 PM 46.9 °F - 46.9 °F 100% 30.50 in - Calm Calm - N/A   Overcast
9:56 PM 45.9 °F - 45.9 °F 100% 30.51 in - Calm Calm - N/A   Overcast
10:26 PM 46.4 °F - 46.4 °F 100% 30.50 in - Calm Calm - N/A   Overcast
10:44 PM 46.4 °F - 46.4 °F 100% 30.50 in - Calm Calm - N/A   Overcast
10:56 PM 46.9 °F - 46.9 °F 100% 30.52 in - Calm Calm - N/A   Overcast
11:30 PM 46.4 °F - 46.4 °F 100% 30.52 in - Calm Calm - 0.00 in Rain Light Rain
11:56 PM 46.9 °F - 46.9 °F 100% 30.52 in - Calm Calm - 0.00 in   Overcast